Weather History for Vicksburg, MS

Change the Weather History Date:

Tuesday, April 2, 2013

  Actual Average Record
Temperature  
Mean Temperature 63 °F 61 °F  
Max Temperature 77 °F 73 °F 88 °F (1957)
Min Temperature 48 °F 50 °F 34 °F (1948)
Degree Days  
Heating Degree Days 2 5  
Month to date heating degree days 5 11  
Since 1 July heating degree days 2161 2252  
Cooling Degree Days 0 2  
Month to date cooling degree days 0 3  
Year to date cooling degree days 25 35  
Growing Degree Days 12 (Base 50)    
Moisture  
Dew Point 49 °F    
Average Humidity 68    
Maximum Humidity 96    
Minimum Humidity 40    
Precipitation  
Precipitation 0.00 in 0.18 in 2.72 in (2000)
Month to date precipitation 0.00 0.36  
Year to date precipitation 25.79 15.73  
Sea Level Pressure  
Sea Level Pressure 30.09 in    
Wind  
Wind Speed 7 mph (NNE)    
Max Wind Speed 18 mph    
Max Gust Speed 22 mph    
Visibility 10 miles    
Events      
T = Trace of Precipitation, MM = Missing Value Source: NWS Daily Summary

Daily Weather History Graph

Daily Weather History Graph

Search for Another Location

Airport:

Trip Planner

Search our weather history database for the weather conditions in past years. The results will help you decide how hot, cold, wet, or windy it might be!

Date:

Astronomy

Apr. 02, 2013 Rise Set
Actual Time 6:50 AM CDT 7:24 PM CDT
Civil Twilight 6:25 AM CDT 7:49 PM CDT
Nautical Twilight 5:56 AM CDT 8:18 PM CDT
Astronomical Twilight 5:27 AM CDT 8:48 PM CDT
Moon 1:16 AM CDT (4/2) 11:55 AM CDT (4/2)
Length of Visible Light 13h 23m
Length of Day
12h 34m
Waning Gibbous, 55% of the Moon is Illuminated
Apr 2
Waning Gibbous
Apr 2
Last Quarter
Apr 10
New
Apr 18
First Quarter
Apr 25
Full

Hourly Weather History & Observations

Time (CDT) Temp. Dew Point Humidity Pressure Visibility Wind Dir Wind Speed Gust Speed Precip Events Conditions
12:53 AM 53.1 °F 51.1 °F 93% 30.10 in 10.0 mi Calm Calm - N/A   Clear
1:53 AM 50.0 °F 48.9 °F 96% 30.11 in 8.0 mi Calm Calm - N/A   Clear
2:53 AM 52.0 °F 50.0 °F 93% 30.09 in 10.0 mi ENE 3.5 mph - N/A   Clear
3:53 AM 48.9 °F 46.9 °F 93% 30.09 in 10.0 mi NNE 3.5 mph - N/A   Clear
4:53 AM 48.9 °F 46.9 °F 93% 30.10 in 10.0 mi NE 3.5 mph - N/A   Clear
5:53 AM 51.1 °F 46.9 °F 86% 30.12 in 10.0 mi NNE 3.5 mph - N/A   Clear
6:53 AM 50.0 °F 46.0 °F 86% 30.13 in 10.0 mi NNE 3.5 mph - N/A   Clear
7:53 AM 55.9 °F 50.0 °F 80% 30.15 in 10.0 mi Calm Calm - N/A   Clear
8:53 AM 60.1 °F 48.0 °F 64% 30.15 in 10.0 mi ENE 6.9 mph - N/A   Clear
9:53 AM 64.0 °F 46.9 °F 54% 30.15 in 10.0 mi ENE 6.9 mph - N/A   Clear
10:53 AM 66.9 °F 48.0 °F 51% 30.16 in 10.0 mi ESE 6.9 mph - N/A   Clear
11:53 AM 70.0 °F 50.0 °F 49% 30.14 in 10.0 mi East 6.9 mph - N/A   Clear
12:53 PM 73.0 °F 50.0 °F 44% 30.12 in 10.0 mi Variable 3.5 mph - N/A   Clear
1:53 PM 75.9 °F 50.0 °F 40% 30.08 in 10.0 mi Calm Calm - N/A   Clear
2:53 PM 77.0 °F 51.1 °F 40% 30.05 in 10.0 mi NE 6.9 mph - N/A   Clear
3:53 PM 77.0 °F 52.0 °F 42% 30.04 in 10.0 mi North 8.1 mph - N/A   Clear
4:53 PM 73.9 °F 53.1 °F 48% 30.02 in 10.0 mi North 15.0 mph - N/A   Clear
5:53 PM 69.1 °F 52.0 °F 54% 30.03 in 10.0 mi North 16.1 mph - N/A   Mostly Cloudy
6:53 PM 66.9 °F 51.1 °F 57% 30.03 in 10.0 mi North 12.7 mph 21.9 mph N/A   Scattered Clouds
7:53 PM 64.0 °F 48.0 °F 56% 30.05 in 10.0 mi North 10.4 mph - N/A   Overcast
8:53 PM 63.0 °F 46.0 °F 54% 30.06 in 10.0 mi North 8.1 mph - N/A   Overcast
9:53 PM 59.0 °F 46.9 °F 64% 30.08 in 10.0 mi North 8.1 mph - N/A   Mostly Cloudy
10:53 PM 59.0 °F 45.0 °F 60% 30.07 in 10.0 mi North 6.9 mph - N/A   Overcast
11:53 PM 59.0 °F 45.0 °F 60% 30.07 in 10.0 mi NNE 10.4 mph - N/A   Mostly Cloudy